Location: Hlohovi?ky
(49.8934°N, 13.6739°E)
Time: 20:01:10
(UTC+00:00)

PSLV R/B - Pass Details

Date: 19 May 2025
Orbit: 400 x 431 km, 97.7° (Epoch: 20 June)

Event Time Altitude Azimuth Distance (km) Brightness Sun altitude
Exits shadow 20:53:42 18° 201° (SSW) 1,110 5.0 -14.6°
Maximum altitude 20:55:41 37° 261° (W) 676 4.4 -14.8°
Drops below altitude 10° 20:58:45 10° 331° (NNW) 1,525 7.5 -15.0°
Sets 21:00:52 0° 340° (NNW) 2,405 8.9 -15.2°
